Whiteman AFB, MO

8:14 AM CST on January 22, 2017 (GMT -0600)
Whiteman Air Force Base

Weather History for KSZL - July, 2013

Change the Weather History Date:

Sunday, July 28, 2013

  Actual Average Record
Temperature  
Mean Temperature 66 °F -  
Max Temperature 79 °F 86 °F 102 °F (2011)
Min Temperature 54 °F 68 °F 54 °F (2013)
Cooling Degree Days 1    
Growing Degree Days 16 (Base 50)    
Moisture  
Dew Point 53 °F    
Average Humidity 66    
Maximum Humidity 100    
Minimum Humidity 35    
Precipitation  
Precipitation 0.00 in - - ()
Sea Level Pressure  
Sea Level Pressure 30.04 in    
Wind  
Wind Speed 3 mph (West)    
Max Wind Speed 10 mph    
Max Gust Speed -    
Visibility 10 miles    
Events      
Averages and records for this station are not official NWS values.
T = Trace of Precipitation, MM = Missing Value Source: NWS Daily Summary

Daily Weather History Graph

Daily Weather History Graph

Search for Another Location

Airport or City:

Trip Planner

Search our weather history database for the weather conditions in past years. The results will help you decide how hot, cold, wet, or windy it might be!

Date:

Astronomy

Jul. 28, 2013 Rise Set
Actual Time 6:12 AM CDT 8:28 PM CDT
Civil Twilight 5:42 AM CDT 8:58 PM CDT
Nautical Twilight 5:05 AM CDT 9:35 PM CDT
Astronomical Twilight 4:25 AM CDT 10:15 PM CDT
Moon 11:55 PM CDT (7/28) 12:50 PM CDT (7/28)
Length of Visible Light 15h 16m
Length of Day
14h 16m
Waning Gibbous, 60% of the Moon is Illuminated
Jul 28
Waning Gibbous
Jul 29
Last Quarter
Aug 6
New
Aug 14
First Quarter
Aug 20
Full

Hourly Weather History & Observations

Time (CDT) Temp. Dew Point Humidity Pressure Visibility Wind Dir Wind Speed Gust Speed Precip Events Conditions
12:58 AM 58.5 °F 55.2 °F 89% 30.03 in 10.0 mi West 2.3 mph - N/A   Clear
1:58 AM 57.6 °F 56.5 °F 96% 30.03 in 10.0 mi Calm Calm - N/A   Clear
2:58 AM 57.0 °F 56.1 °F 97% 30.03 in 10.0 mi North 2.3 mph - N/A   Clear
3:58 AM 57.0 °F 56.5 °F 98% 30.03 in 10.0 mi Calm Calm - N/A   Clear
4:58 AM 55.0 °F 54.9 °F 99% 30.04 in 10.0 mi SSW 2.3 mph - N/A   Partly Cloudy
5:58 AM 54.0 °F 53.8 °F 99% 30.04 in 10.0 mi SW 2.3 mph - N/A   Scattered Clouds
6:58 AM 54.3 °F 54.3 °F 100% 30.05 in 10.0 mi NNE 2.3 mph - N/A   Clear
7:58 AM 62.1 °F 57.7 °F 86% 30.05 in 10.0 mi Calm Calm - N/A   Mostly Cloudy
8:58 AM 65.8 °F 57.0 °F 73% 30.05 in 10.0 mi North 1.2 mph - N/A   Clear
9:58 AM 71.4 °F 51.8 °F 50% 30.05 in 10.0 mi NW 5.8 mph - N/A   Clear
10:58 AM 72.9 °F 48.4 °F 42% 30.06 in 10.0 mi North 3.5 mph - N/A   Clear
11:58 AM 74.1 °F 46.6 °F 37% 30.04 in 10.0 mi Variable 2.3 mph - N/A   Clear
12:58 PM 76.5 °F 47.5 °F 36% 30.04 in 10.0 mi Variable 6.9 mph - N/A   Clear
1:58 PM 78.1 °F 48.7 °F 36% 30.03 in 10.0 mi WNW 2.3 mph - N/A   Partly Cloudy
2:58 PM 78.1 °F 49.1 °F 36% 30.03 in 10.0 mi WSW 6.9 mph - N/A   Partly Cloudy
3:58 PM 78.3 °F 49.6 °F 37% 30.03 in 10.0 mi ENE 1.2 mph - N/A   Partly Cloudy
4:58 PM 77.5 °F 48.2 °F 35% 30.03 in 10.0 mi SW 10.4 mph - N/A   Mostly Cloudy
5:58 PM 76.3 °F 52.9 °F 44% 30.03 in 10.0 mi WSW 9.2 mph - N/A   Partly Cloudy
6:58 PM 74.1 °F 53.4 °F 48% 30.04 in 10.0 mi SW 8.1 mph - N/A   Mostly Cloudy
7:58 PM 72.1 °F 53.4 °F 52% 30.05 in 10.0 mi WSW 4.6 mph - N/A   Mostly Cloudy
8:58 PM 70.0 °F 53.8 °F 56% 30.03 in 10.0 mi SSW 4.6 mph - N/A   Clear
9:58 PM 65.7 °F 57.9 °F 76% 30.04 in 10.0 mi Calm Calm - N/A   Clear
10:58 PM 63.9 °F 58.6 °F 83% 30.06 in 10.0 mi SSW 3.5 mph - N/A   Clear
11:58 PM 64.4 °F 57.0 °F 77% 30.06 in 10.0 mi Calm Calm - N/A   Partly Cloudy